Bangkok (Don Mueang), Thailand

10:45 PM +07 on August 16, 2017 (GMT +0700)
Bangkok International

Weather History for VTBD - October, 2011

Change the Weather History Date:

Tuesday, October 4, 2011

  Actual Average Record
Temperature  
Mean Temperature 79 °F -  
Max Temperature 87 °F 89 °F 95 °F (1996)
Min Temperature 71 °F 76 °F 71 °F (2011)
Cooling Degree Days 14    
Growing Degree Days 29 (Base 50)    
Moisture  
Dew Point 72 °F    
Average Humidity 77    
Maximum Humidity 94    
Minimum Humidity 49    
Precipitation  
Precipitation 0.16 in 0.21 in - ()
Sea Level Pressure  
Sea Level Pressure 29.76 in    
Wind  
Wind Speed 5 mph ()    
Max Wind Speed 10 mph    
Max Gust Speed -    
Visibility 5.8 miles    
Events Rain    
Averages and records for this station are not official NWS values.
T = Trace of Precipitation, MM = Missing Value Source: Averaged Metar Reports

Daily Weather History Graph

Daily Weather History Graph

Search for Another Location

Airport or City:

Trip Planner

Search our weather history database for the weather conditions in past years. The results will help you decide how hot, cold, wet, or windy it might be!

Date:

Astronomy

Oct. 04, 2011 Rise Set
Actual Time 6:07 AM +07 6:05 PM +07
Civil Twilight 5:45 AM +07 6:26 PM +07
Nautical Twilight 5:21 AM +07 6:51 PM +07
Astronomical Twilight 4:56 AM +07 7:16 PM +07
Moon 12:40 PM +07 (10/4) No Moon Set
Length of Visible Light 12h 41m
Length of Day
11h 58m
Waxing Crescent, 51% of the Moon is Illuminated
Oct 4
Waxing Crescent
Oct 12
Full
Oct 20
Last Quarter
Oct 27
New
Nov 2
First Quarter

Hourly Weather History & Observations

Time (+07) Temp. Heat Index Dew Point Humidity Pressure Visibility Wind Dir Wind Speed Gust Speed Precip Events Conditions
12:00 AM 77.0 °F - 73.4 °F 89% 29.80 in 6.2 mi WSW 5.8 mph - N/A Rain Light Rain
12:30 AM 77.0 °F - 73.4 °F 89% 29.77 in 6.2 mi West 4.6 mph - N/A Rain Light Rain
1:00 AM 76 °F - 72 °F 84% 29.78 in 6 mi WNW 5.8 mph - - Rain Light Rain
1:00 AM 77.0 °F - 71.6 °F 83% 29.77 in 6.2 mi WNW 5.8 mph - N/A   Mostly Cloudy
1:30 AM 73.4 °F - 71.6 °F 94% 29.77 in 5.0 mi NW 6.9 mph - N/A Rain Light Rain
2:00 AM 73.4 °F - 69.8 °F 88% 29.77 in 5.0 mi West 8.1 mph - N/A Rain Light Rain
2:30 AM 71.6 °F - 68.0 °F 88% 29.77 in 3.7 mi WNW 6.9 mph - N/A Rain Light Rain
3:00 AM 71.6 °F - 68.0 °F 88% 29.77 in 4.3 mi West 5.8 mph - N/A Rain Light Rain
3:30 AM 71.6 °F - 68.0 °F 88% 29.74 in 4.3 mi NW 1.2 mph - N/A Rain Light Rain
4:00 AM 71.6 °F - 69.8 °F 94% 29.74 in 4.3 mi NE 2.3 mph - N/A Rain Light Rain
4:30 AM 71.6 °F - 69.8 °F 94% 29.74 in 4.3 mi East 2.3 mph - N/A Rain Light Rain
5:00 AM 71.6 °F - 69.8 °F 94% 29.74 in 4.3 mi ESE 2.3 mph - N/A Rain Light Rain
5:30 AM 71.6 °F - 69.8 °F 94% 29.74 in 5.6 mi East 3.5 mph - N/A Rain Light Rain
6:00 AM 73.4 °F - 71.6 °F 94% 29.77 in 5.6 mi ENE 2.3 mph - N/A Rain Light Rain
6:30 AM 75.2 °F - 73.4 °F 94% 29.77 in 5.0 mi ENE 4.6 mph - N/A   Mostly Cloudy
7:00 AM 75 °F - 73 °F 91% 29.78 in 5 mi ENE 4.6 mph - - Rain Light Rain
7:00 AM 75.2 °F - 73.4 °F 94% 29.77 in 5.0 mi ENE 4.6 mph - N/A Rain Light Rain
7:30 AM 75.2 °F - 73.4 °F 94% 29.80 in 5.0 mi ENE 5.8 mph - N/A Rain Light Rain
8:00 AM 75.2 °F - 73.4 °F 94% 29.80 in 6.2 mi East 4.6 mph - N/A Rain Light Rain
8:30 AM 77.0 °F - 73.4 °F 89% 29.83 in 6.2 mi ESE 4.6 mph - N/A Rain Light Rain
9:00 AM 77.0 °F - 75.2 °F 94% 29.83 in 6.2 mi SE 3.5 mph - N/A   Mostly Cloudy
9:30 AM 78.8 °F - 75.2 °F 89% 29.83 in 6.2 mi East 4.6 mph - N/A   Mostly Cloudy
10:00 AM 80.6 °F 87.1 °F 77.0 °F 89% 29.83 in 6.2 mi SE 4.6 mph - N/A   Mostly Cloudy
10:30 AM 82.4 °F 90.9 °F 77.0 °F 84% 29.83 in 6.2 mi ESE 3.5 mph - N/A   Mostly Cloudy
11:00 AM 84.2 °F 94.1 °F 77.0 °F 79% 29.80 in 6.2 mi ESE 3.5 mph - N/A   Mostly Cloudy
11:30 AM 86.0 °F 93.4 °F 73.4 °F 66% 29.80 in 6.2 mi ESE 9.2 mph - N/A   Mostly Cloudy
12:00 PM 86.0 °F 93.4 °F 73.4 °F 66% 29.77 in 6.2 mi South 2.3 mph - N/A   Mostly Cloudy
12:30 PM 86.0 °F 93.4 °F 73.4 °F 66% 29.77 in 6.2 mi East 3.5 mph - N/A   Mostly Cloudy
1:00 PM 87 °F - 70 °F 49% 29.76 in 6 mi SE 4.6 mph - -   Partly Cloudy
1:00 PM 87.8 °F 92.6 °F 69.8 °F 55% 29.74 in 6.2 mi SE 4.6 mph - N/A   Mostly Cloudy
1:30 PM 87.8 °F 92.6 °F 69.8 °F 55% 29.74 in 6.2 mi East 10.4 mph - N/A   Mostly Cloudy
2:00 PM 86.0 °F 90.4 °F 69.8 °F 58% 29.71 in 6.2 mi East 5.8 mph - N/A   Mostly Cloudy
2:30 PM 86.0 °F 90.4 °F 69.8 °F 58% 29.71 in 6.2 mi East 5.8 mph - N/A   Mostly Cloudy
3:00 PM 87.8 °F 92.6 °F 69.8 °F 55% 29.68 in 6.2 mi ESE 2.3 mph - N/A   Mostly Cloudy
3:30 PM 86.0 °F 90.4 °F 69.8 °F 58% 29.68 in 6.2 mi ENE 9.2 mph - N/A   Mostly Cloudy
4:00 PM 86.0 °F 90.4 °F 69.8 °F 58% 29.68 in 6.2 mi East 8.1 mph - N/A   Mostly Cloudy
4:30 PM 86.0 °F 90.4 °F 69.8 °F 58% 29.68 in 6.2 mi East 6.9 mph - N/A   Mostly Cloudy
5:00 PM 84.2 °F 87.3 °F 68.0 °F 58% 29.71 in 6.2 mi East 6.9 mph - N/A   Mostly Cloudy
5:30 PM 84.2 °F 88.4 °F 69.8 °F 62% 29.71 in 6.2 mi ENE 6.9 mph - N/A   Mostly Cloudy
6:00 PM 84.2 °F 89.6 °F 71.6 °F 66% 29.71 in 6.2 mi East 5.8 mph - N/A   Mostly Cloudy
6:30 PM 82.4 °F 86.3 °F 69.8 °F 66% 29.74 in 6.2 mi ESE 5.8 mph - N/A   Mostly Cloudy
7:00 PM 82.4 °F 87.2 °F 71.6 °F 70% 29.74 in 6.2 mi ESE 4.6 mph - N/A   Mostly Cloudy
7:30 PM 82.4 °F 87.2 °F 71.6 °F 70% 29.77 in 6.2 mi SE 3.5 mph - N/A   Mostly Cloudy
8:00 PM 82.4 °F 87.2 °F 71.6 °F 70% 29.77 in 6.2 mi SE 3.5 mph - N/A   Mostly Cloudy
8:30 PM 82.4 °F 87.2 °F 71.6 °F 70% 29.77 in 6.2 mi SE 2.3 mph - N/A   Mostly Cloudy
9:00 PM 82.4 °F 87.2 °F 71.6 °F 70% 29.80 in 6.2 mi SE 3.5 mph - N/A   Mostly Cloudy
9:30 PM 82.4 °F 88.2 °F 73.4 °F 74% 29.80 in 6.2 mi SSE 2.3 mph - N/A   Mostly Cloudy
10:00 PM 82.4 °F 88.2 °F 73.4 °F 74% 29.80 in 6.2 mi SSE 3.5 mph - N/A   Mostly Cloudy
10:30 PM 82.4 °F 88.2 °F 73.4 °F 74% 29.80 in 6.2 mi South 3.5 mph - N/A   Mostly Cloudy
11:00 PM 80.6 °F 85.4 °F 73.4 °F 79% 29.80 in 6.2 mi SSW 3.5 mph - N/A   Mostly Cloudy
11:30 PM 80.6 °F 84.6 °F 71.6 °F 74% 29.80 in 6.2 mi South 5.8 mph - N/A   Mostly Cloudy